Regional Weather Roundup
Issued by NWS

Home | Current Version | Previous Version | Text Only | Print | Product List | Glossary On
Versions: 1 2 3 4 5 6 7 8 9 10 11 12 13 14 15 16 17 18 19 20 21 22 23 24 25 26 27 28 29 30 31 32 33 34 35 36 37 38 39 40 41 42 43 44 45 46 47 48 49 50
000
ASUS42 KTBW 180810
RWRFL
FLORIDA REGIONAL WEATHER ROUNDUP
NATIONAL WEATHER SERVICE TAMPA BAY RUSKIN FL
400 AM EDT THU SEP 18 2014

NOTE: "FAIR" INDICATES FEW OR NO CLOUDS BELOW 12,000 FEET WITH NO
SIGNIFICANT WEATHER AND/OR OBSTRUCTIONS TO VISIBILITY.


FLZ001>010-012>015-112-114-115-180900-
PANHANDLE FLORIDA

CITY           SKY/WX    TMP DP  RH WIND       PRES   REMARKS
PENSACOLA      CLEAR     73  72  96 CALM      29.89S
PENSACOLA NAS  CLEAR     74  73  97 CALM      29.89S
MILTON NAS     CLEAR     71  68  90 N3        29.90S
CRESTVIEW      PTCLDY    70  69  97 CALM      29.91S FOG
DUKE FIELD     FAIR      72  72 100 CALM      29.90F
VALPARAISO     MOCLDY    74  71  88 CALM      29.90S
MARY ESTHER    PTCLDY    73  68  83 N3        29.89S
TRI COUNTY     FAIR      70  70 100 CALM      29.89F FOG
PANAMA CITY    FAIR      73  70  90 CALM      29.89S
TYNDALL AFB    CLEAR     72  72  99 N2        29.89S
APALACHICOLA   CLEAR     74  70  87 NE3       29.88F

STATION/POSITION SKY/WX   TEMP    WIND        PRES    WAVE   SWELL
                          AIR SEA DIR/SP/G            HT/PER HT/PER
                          (F)     (DEG/KT/KT) (MB)    (FT/S) (FT/S)
30.1N   87.6W              83 85  330/  4/  6 1012.4R   1/ 8
29.2N   88.2W              82 85  310/  4/  6 1012.8S   1/ 4   2/ 4
28.8N   86.0W              81 85   10/  2/  4 1011.9F   1/ 6   2/ 6
PANAMA CITY BEAC           78 86  330/  6/  7 1012.1S
CAPE SAN BLAS    NOT AVBL
TOWER C                    81     320/  5/  5 1011.8F
28.5N   84.5W              81 85   CALM  /  2 1011.8F   1/ 5   2/ 5

$$
FLZ011-016>038-118-127-128-134-139-239-180900-
NORTH FLORIDA

CITY           SKY/WX    TMP DP  RH WIND       PRES   REMARKS
MARIANNA       CLEAR     71  71 100 CALM      29.88F
TALLAHASSEE    CLEAR     71  70  96 CALM      29.88F
PERRY          CLEAR     72  72 100 CALM      29.89F
CROSS CITY       N/A     72  69  90 CALM      29.87F
LAKE CITY      FAIR      70  70 100 CALM      29.88F
GAINESVILLE    CLEAR     70  70 100 CALM      29.88F
MAYPORT NAS    CLEAR     74  72  93 S3        29.87F
JACKSONVILLE   PTCLDY    72  71  97 NW3       29.87F
JAX NAS        PTCLDY    78  71  79 W6        29.88F
JAX CRAIG      CLEAR     73  71  93 CALM      29.87F
JAX CECIL      CLEAR     70  70 100 CALM      29.88S FOG
ST AUGUSTINE   CLEAR     73  70  90 CALM      29.88F

STATION/POSITION SKY/WX   TEMP    WIND        PRES    WAVE   SWELL
                          AIR SEA DIR/SP/G            HT/PER HT/PER
                          (F)     (DEG/KT/KT) (MB)    (FT/S) (FT/S)
SHELL POINT                77     310/  3/  4   N/A
KEATON BEACH               76      60/  2/  2 1011.7F
CEDAR KEY                  79     310/  2/  2 1012.7F
FERNANDINA                 77 85  220/  5/  5 1011.0S
30.7N   81.3W                 84                N/A     3/13   2/13
MAYPORT                    76 84  220/  4/  5   N/A
31.4N   80.9W              79 84   60/  2/  4 1012.1R   3/12   3/12
ST AUGUSTINE               74     220/  2/  3 1012.2F

$$
FLZ040-043>046-052-053-057-058-063-144-180900-
INTERIOR CENTRAL FLORIDA

CITY           SKY/WX    TMP DP  RH WIND       PRES   REMARKS
OCALA          CLEAR     70  68  94 CALM      29.88F
THE VILLAGES   FOG       73  73 100 CALM      29.79F VSB 1/4
LEESBURG       CLEAR     76  73  91 W3        29.89F
SANFORD        CLEAR     73  71  93 NW5       29.88F
ORLANDO EXEC   CLEAR     75  73  93 CALM      29.89F
ORLANDO INTL   PTCLDY    73  73 100 SW6       29.89F
WINTER HAVEN   FOG       72  72 100 NW3       29.90F VSB 1/4
LAKELAND       FOG      N/A N/A N/A CALM      29.90S VSB<1/4
BARTOW         FOG       72 N/A N/A S3        29.91S VSB 1/4
OKEECHOBEE       N/A     70  70 100 MISG      29.89F

$$
FLZ041-047-054-059-064-141-147-180900-
EAST CENTRAL FLORIDA

CITY           SKY/WX    TMP DP  RH WIND       PRES   REMARKS
DAYTONA BEACH  PTCLDY    72  69  90 NW3       29.88F
DELAND         SUNNY     72  70  94 CALM      29.89F
JFK SPACE CTR  CLEAR     74  73  94 W5        29.87F
CAPE CANAVERAL CLEAR     75  73  94 W7        29.87F
PATRICK AFB    CLOUDY    74  74  98 W10       29.88F
MELBOURNE      CLOUDY    74  72  93 W6        29.88F FOG
VERO BEACH     CLOUDY    71  69  93 W6        29.87F
FT PIERCE      CLOUDY    73  70  90 W6        29.88F FOG
STUART         CLEAR     72  70  94 W5        29.89S

STATION/POSITION SKY/WX   TEMP    WIND        PRES    WAVE   SWELL
                          AIR SEA DIR/SP/G            HT/PER HT/PER
                          (F)     (DEG/KT/KT) (MB)    (FT/S) (FT/S)
28.5N   80.2W              79 85  290/ 10/ 12 1011.6F
28.9N   78.5W              80 85  350/  8/ 10 1011.1R   5/12   5/12
TRIDENT PIER               76 85  240/  7/  8 1011.1F
28.4N   80.5W                 84                N/A     3/13   2/13
27.6N   80.2W                 83                N/A     3/13   3/13

$$
FLZ050-056-061-142-242-148-248-149-249-151-251-155-255-
160-260-180900-
WEST CENTRAL FLORIDA

CITY           SKY/WX    TMP DP  RH WIND       PRES   REMARKS
CRYSTAL RIVER  FAIR      70  68  94 CALM      29.88F
INVERNESS      FAIR      70  61  73 CALM      29.89F HAZE
BROOKSVILLE    FOG       70  70 100 CALM      29.90F VSB 3/4
ZEPHYRHILLS    FOG       63  63 100 CALM      29.90F VSB 1/4
CLEARWATER     CLEAR     73  72  96 CALM      29.89F
TAMPA INTL     CLEAR     74  71  91 CALM      29.89F
TAMPA EXEC     FOG       73  72  94 CALM      29.90F VSB 1/4
PLANT CITY     FOG       73 N/A N/A CALM      29.91F VSB 1/2
MACDILL AFB    CLEAR     72  72 100 N2        29.88F FOG
ST PETERSBURG  CLEAR     76  73  91 N3        29.87F
SARASOTA       CLEAR     72  72 100 CALM      29.87F
VENICE           N/A    N/A N/A N/A MISG        N/A

STATION/POSITION SKY/WX   TEMP    WIND        PRES    WAVE   SWELL
                          AIR SEA DIR/SP/G            HT/PER HT/PER
                          (F)     (DEG/KT/KT) (MB)    (FT/S) (FT/S)
CEDAR KEY                  79     310/  2/  2 1012.7F
28.5N   84.5W              81 85   CALM  /  2 1011.8F   1/ 5   2/ 5
27.3N   84.3W                 85                N/A     2/ 5
CLEARWATER BEACH NOT AVBL
MIDDLE TAMPA BAY           76     130/  2/  3 1012.2F
VENICE                     75 85   70/  4/  5 1011.5F

$$
FLZ066-069-070-075>078-162-262-165-265-180900-
SOUTHWEST FLORIDA AND KEYS

CITY           SKY/WX    TMP DP  RH WIND       PRES   REMARKS
PUNTA GORDA    MOCLDY    75  73  93 CALM      29.89F
FT MYERS       PTCLDY    75  74  96 CALM      29.87F
SOUTHWEST INTL PTCLDY    74  69  85 CALM      29.88F
NAPLES         CLOUDY    75  73  93 CALM      29.87F
MARCO ISLAND   MOSUNNY   75  73  94 SW6       29.88F
MARATHON       CLOUDY    77  77 100 CALM      29.89F
KEY WEST NAS   CLOUDY    81  74  79 S3        29.89F
KEY WEST INTL  CLOUDY    83  73  72 S3        29.90F

STATION/POSITION SKY/WX   TEMP    WIND        PRES    WAVE   SWELL
                          AIR SEA DIR/SP/G            HT/PER HT/PER
                          (F)     (DEG/KT/KT) (MB)    (FT/S) (FT/S)
VENICE                     75 85   70/  4/  5 1011.5F
NAPLES                     77 88  170/  2/  3 1012.3F
DRY TORTUGAS               83     190/  1/  2 1012.1F
NW FL BAY                  80      90/  6/  7 1013.1F
SAND KEY                   82     170/  2/  5 1012.3F
SOMBRERO KEY               82     210/  4/  5 1012.9F
LONG KEY                   82 86   CALM  /  1 1013.5F
MOLASSES REEF              81 85  340/  2/  2 1012.2F

$$
FLZ067-068-071>074-168-172>174-180900-
SOUTHEAST FLORIDA

CITY           SKY/WX    TMP DP  RH WIND       PRES   REMARKS
W PALM BEACH   PTCLDY    75  72  90 W5        29.87F
FT LAUDER-EXEC MOCLDY    77  74  90 SW3       29.88F
FT LAUDERDALE  MOCLDY    79  72  79 SW5       29.88F
POMPANO BEACH  MOCLDY    78  71  79 SW3       29.89F
PEMBROKE PINES MOCLDY    77  73  87 SW3       29.90F
OPA LOCKA      CLOUDY    78  70  76 S5        29.90S
MIAMI          CLOUDY    78  72  81 S5        29.90F
WEST KENDALL   MOCLDY    76  71  85 S3        29.90F
HOMESTEAD      PTCLDY    74  73  94 CALM      29.89F

STATION/POSITION SKY/WX   TEMP    WIND        PRES    WAVE   SWELL
                          AIR SEA DIR/SP/G            HT/PER HT/PER
                          (F)     (DEG/KT/KT) (MB)    (FT/S) (FT/S)
PORT EVERGLADES            78     190/  3/  4 1012.0
VIRGINIA KEY               81 86  210/  6/  7   N/A
LAKE WORTH                 77 85  260/  4/  6 1011.5F
FOWEY ROCKS                80 85  210/  5/  6 1012.5F
SETTLEMENT POINT           81     250/ 12/ 13 1012.5F

$$



USA.gov is the U.S. government's official web portal to all federal, state and local government web resources and services.